Regional Weather Roundup
Issued by NWS

Home | Current Version | Previous Version | Graphics & Text | Print | Product List | Glossary On
Versions: 1 2 3 4 5 6 7 8 9 10 11 12 13 14 15 16 17 18 19 20 21 22 23 24 25 26 27
000
ASUS45 KTFX 101610
RWRMT
MONTANA REGIONAL WEATHER ROUNDUP
NATIONAL WEATHER SERVICE GREAT FALLS MT
900 AM MST SAT DEC 10 2016

NOTE: "FAIR" INDICATES FEW OR NO CLOUDS BELOW 12000 FEET WITH NO
SIGNIFICANT WEATHER AND/OR OBSTRUCTIONS TO VISIBILITY.

MTZ001>007-043-101700-
WEST OF THE DIVIDE

CITY           SKY/WX    TMP DP  RH WIND       PRES   REMARKS
KALISPELL      LGT SNOW  10   6  84 W5        29.76R VSB 3/4
MISSOULA       HVY SNOW  16  15  96 NW5       29.75R VSB 1/4
BUTTE          CLOUDY    18  16  92 CALM      29.65F FOG
MULLAN PASS    SNOW      20  19  96 VRB5      29.60R VSB 1/2
ANACONDA         N/A     27  25  93 S6        29.64F WCI  20
DEER LODGE       N/A     14  10  85 CALM      29.67F
EUREKA           N/A      7   3  85 CALM      29.84S VSB 3/4
HAMILTON         N/A     16  12  86 CALM      29.68F
LIBBY            N/A     12  10  92 CALM      29.79F
PLAINS           N/A     16  10  77 CALM      29.83R
RONAN            N/A     13   8  80 CALM      29.79R
$$

MTZ008-052>055-101700-
SOUTHWEST MONTANA

CITY           SKY/WX    TMP DP  RH WIND       PRES   REMARKS
BOZEMAN        CLOUDY    12   8  84 NE3       29.69F
DILLON         FLURRIES  22  17  81 SE8       29.66F WCI  12
W YELLOWSTONE  MIX PCPN  28  25  86 SW5       29.73F
ENNIS          MOCLDY    34  25  69 S16       29.70F WCI  23
THREE FORKS      N/A     11 -19  24 CALM      29.73F
TWIN BRIDGES     N/A     19  11  71 SE3       29.71F
$$

MTZ009-010-012-014-046-048-049-054-101700-
EAST SLOPES AND CENTRAL MONTANA

CITY           SKY/WX    TMP DP  RH WIND       PRES   REMARKS
CUT BANK       LGT SNOW   2  -1  88 SE8       29.71F VSB 3/4 WCI -12
GREAT FALLS    CLOUDY     2  -2  83 CALM      29.72F
MALMSTROM AFB  FLURRIES   3   1  92 N2        29.75F
HELENA         CLOUDY     6   2  83 SE5       29.74F
AUGUSTA        FLURRIES  -1  -4  86 NE7       29.65F WCI -15
BOWMANS CRNR   MOCLDY    -2  -5  87 NE13      29.64R WCI -20
CHOTEAU        FOG        1  -2  85 MISG      29.72F VSB 1
CONRAD           N/A      2  -1  87 NE6       29.76F WCI  -9
FAIRFIELD      FLURRIES   1  -3  84 NE3       29.70F
POWER          CLOUDY     3   0  86 NE5       29.71F
RAYNESFORD     MOCLDY     7   1  77 N6        29.69F WCI  -3
ULM            MOCLDY     0  -3  87 MISG      29.72F
$$

MTZ011-013-016-021-045-047-050-051-101700-
NORTH CENTRAL MONTANA

CITY           SKY/WX    TMP DP  RH WIND       PRES   REMARKS
HAVRE          CLOUDY     5   1  83 E16       29.86F WCI -14
LEWISTOWN      CLOUDY     8   3  80 N5        29.70S
N BAR RANCH    CLOUDY    28  23  80 VRB6      29.69S WCI  22
CHINOOK          N/A      3  -2  78 E16       29.90F WCI -16
DENTON         FLURRIES   6   3  89 MISG      29.71F
FORT BENTON      N/A      7   0  72 MISG      29.82F
GEYSER         FLURRIES   5   2  87 E3        29.68F
GRASS RANGE    CLOUDY     7   4  85 NW2       29.70F
JUDITH GAP     SNOWSHWR  10   6  86 S13       29.66F WCI  -6
ROY            MOCLDY     5   2  90 MISG      29.75F
STANFORD       MOCLDY     6   3  89 SE1       29.66F
WINIFRED       FLURRIES   5   3  90 MISG      29.73F
$$

MTZ017>020-022>027-061-062-101700-
NORTHEAST MONTANA

CITY           SKY/WX    TMP DP  RH WIND       PRES   REMARKS
GLASGOW        LGT SNOW  -1  -7  75 E14       30.01S VSB 3/4 WCI -20
JORDAN           N/A      6   1  80 E12       29.90F WCI  -9
SIDNEY         FLURRIES   0  -7  72 E12       30.12F WCI -17
WOLF POINT     LGT SNOW  -2  -9  72 NE16      30.09F WCI -23
PLENTYWOOD       N/A     -8 -11  84 E8        30.12S WCI -23
SCOBEY           N/A     -3 -15  56 E9        30.04F VSB 1   WCI -19
$$

MTZ028>42-056>058-101700-
SOUTHCENTRAL AND SOUTHEAST MONTANA

CITY           SKY/WX    TMP DP  RH WIND       PRES   REMARKS
BAKER          CLOUDY     0  -5  79 SE22      29.95F WCI -23
BILLINGS       LGT SNOW   9   7  92 S8        29.77F FOG     WCI  -3
LIVINGSTON     FLURRIES  12   6  77 CALM      29.70F
MILES CITY     CLOUDY     8   0  69 SE12      29.93F WCI  -7
BIG TIMBER     PTCLDY     9   5  85 SW5       29.74F
EKALAKA          N/A      1  -7  69 E9        29.85F WCI -14
FORSYTH          N/A      9   3  78 E9        29.88F WCI  -5
HARLOWTON      FLURRIES   8   4  84 NW5       29.71F
LAUREL           N/A      9  -5  53 CALM      29.78F
ROUNDUP          N/A     10   2  70 S6        29.71F WCI   0
$$

REGIONAL REPORTS...DAKOTAS

CITY           SKY/WX    TMP DP  RH WIND       PRES   REMARKS
WILLISTON      CLOUDY    -3  -9  75 E7        30.17F WCI -16
MINOT          CLOUDY   -18 -22  82 S5        30.28F
DICKINSON      CLOUDY    -4  -9  79 SE16      30.07F WCI -25
BEACH          CLOUDY     0  -2  92 SE22      30.02F WCI -23
CROSBY           N/A    -13 -18  77 E6        30.23R WCI -27
TIOGA          MOCLDY   -13 -17  84 E6        30.18S WCI -27
WATFORD CITY     N/A     -6  -9  84 SE17      30.15F WCI -28
BISMARCK       CLOUDY   -16 -20  82 NE6       30.31F WCI -31
GRAND FORKS    CLOUDY    -6 -13  71 NE5       30.46F
FARGO          CLOUDY    -2  -9  72 E5        30.44F
BUFFALO SD       N/A      1  -4  79 SE18      29.90F WCI -20
RAPID CITY     CLOUDY     2  -1  88 SE9       29.98F WCI -13
$$

REGIONAL REPORTS...WYOMING/IDAHO/WASHINGTON

CITY           SKY/WX    TMP DP  RH WIND       PRES   REMARKS
GILLETTE       CLOUDY     5   1  83 S14       29.77F WCI -12
SHERIDAN       CLOUDY    12   6  77 CALM      29.78F
BUFFALO WY     CLOUDY    11   4  73 SW3       29.72F
CODY           CLOUDY    13   7  77 CALM      29.72F
YELLOWSTONE LA   N/A     27  24  89 W8        29.73F WCI  19
IDAHO FALLS    LGT RAIN  35  32  88 S21       29.80F FOG     WCI  24
SALMON         CLOUDY    19  18  93 CALM      29.76S
BOISE          CLOUDY    35  34  96 SE8       29.85S FOG     WCI  29
SPOKANE        CLOUDY    19  17  92 SW5       29.82R
$$

REGIONAL REPORTS...ALBERTA

CITY           SKY/WX    TMP DP  RH WIND       PRES   REMARKS
EDMONTON       CLOUDY   -17 -24  70 E3        30.01S VSB 3/4
CALGARY        CRYSTALS  -6 -11  77 S8        29.77R WCI -21
LETHBRIDGE     CLOUDY     0  -4  85 NE7       29.81F WCI -13
MEDICINE HAT   FLURRIES   1  -2  85 N5        29.92S
WATERTON GATE    N/A     -2  -8  78 NE7         N/A  WCI -16
CARDSTON         N/A     -4  -9  77 N3          N/A
MILK RIVER       N/A      5   0  78 S12         N/A  WCI -11
ONEFOUR          N/A      1  -4  78 E14         N/A  WCI -17
$$

REGIONAL REPORTS...SASKATCHEWAN

CITY           SKY/WX    TMP DP  RH WIND       PRES   REMARKS
SWIFT CURRENT  CLOUDY    -4  -8  84 SE15G21   29.94F WCI -25
REGINA         MOCLDY   -17 -22  76 SE12      30.19F WCI -38
SASKATOON      MOCLDY    -8 -13  77 E6        30.19F WCI -21
CYPRESS HILLS    N/A     -4  -9  77 SE9         N/A  WCI -20
VAL MARIE        N/A      3  -2  78 SE7         N/A  WCI  -9
ROCKGLEN         N/A     -6  -9  84 SE13        N/A  WCI -25
ASSINIBOIA       N/A    -15 -20  76 E2          N/A
$$




USA.gov is the U.S. government's official web portal to all federal, state and local government web resources and services.